This is the latest recevied weather packets stored in our database for station/object YO6SAY-10. If no packets are shown the sender has not sent any weather packets the latest 10 day(s).
| Time | Temp. | Humidity | Pressure | Rain* | Wind** | Luminosity | Snow |
|---|---|---|---|---|---|---|---|
| 1777102024 | 14.44° C | 52% | 948.5 hPa | - | - | - | - |
| 1777101124 | 13.89° C | 51% | 948.4 hPa | - | - | - | - |
| 1777100224 | 13.89° C | 51% | 948.4 hPa | - | - | - | - |
| 1777099324 | 13.33° C | 51% | 948.2 hPa | - | - | - | - |
| 1777098424 | 13.33° C | 52% | 948.3 hPa | - | - | - | - |
| 1777097523 | 12.78° C | 52% | 948.3 hPa | - | - | - | - |
| 1777096623 | 12.22° C | 52% | 948.3 hPa | - | - | - | - |
| 1777095723 | 12.22° C | 53% | 948.4 hPa | - | - | - | - |
| 1777094823 | 11.67° C | 53% | 948.2 hPa | - | - | - | - |
| 1777093923 | 11.67° C | 53% | 948.1 hPa | - | - | - | - |
| 1777093023 | 11.67° C | 53% | 948 hPa | - | - | - | - |
| 1777092122 | 11.11° C | 53% | 948.1 hPa | - | - | - | - |
| 1777091222 | 11.11° C | 53% | 948.1 hPa | - | - | - | - |
| 1777090321 | 11.11° C | 53% | 948.1 hPa | - | - | - | - |
| 1777089421 | 11.11° C | 54% | 948 hPa | - | - | - | - |
| 1777088520 | 11.11° C | 54% | 947.9 hPa | - | - | - | - |
| 1777087620 | 11.11° C | 53% | 947.9 hPa | - | - | - | - |
| 1777086720 | 11.11° C | 53% | 947.9 hPa | - | - | - | - |
| 1777085820 | 11.11° C | 53% | 947.8 hPa | - | - | - | - |
| 1777084919 | 11.11° C | 53% | 947.7 hPa | - | - | - | - |
| 1777084019 | 11.67° C | 53% | 947.7 hPa | - | - | - | - |
| 1777083118 | 11.67° C | 52% | 947.6 hPa | - | - | - | - |
| 1777082218 | 11.67° C | 52% | 947.7 hPa | - | - | - | - |
| 1777081318 | 11.67° C | 52% | 947.8 hPa | - | - | - | - |
| 1777080418 | 11.67° C | 52% | 947.6 hPa | - | - | - | - |
* Rain since midnight (hover to see other rain measurements)
** Current wind speed in m/s (hover to see current wind gust speed)